Content
SEND FEEDBACK

Daily
Averages
Monthly
Summary
United States of America

GOSHEN, INDIANA


Home > North America > United States > Indiana
Elevation: 984 feet     Latitude: 41 38N     Longitude: 085 05W

WEATHER
 
SELECT A DAY
Number of Records: 430,885;   Date Range: 3/27/97 - 9/21/14
 
SHARE

PRINT THIS DATA

[ ← Previous Day ]
WEATHER ALMANAC - FEBRUARY 13, 2013
[ Next Day → ]
[ °C ]   °F
Weather ElementAverageHighLow
Temperature32 °F41.7 °F (3:54 pm)23.9 °F (7:54 am)
Dewpoint23.8 °F28 °F (11:54 pm)20.7 °F (8:15 am)
Humidity72.5 %88 % (7:54 am)51 % (4:14 pm)
Barometer29.79 in29.92 in (12:34 am)29.71 in (3:14 pm)
Wind Speed4.6 mph11.5 mph (2:14 pm)
Wind Gust16.1 mph (2:14 pm)
Weather ElementAverage
Visibility9.6 mi
Wind DirectionS (181.1 °)

Weather ElementTotal
Precipitation---
Heating Degree Days32.2 (Base 65)
Averaged from 70 records on February 13, 2013
WEATHER CONDITIONS BREAKOUT
WIND DIRECTION BREAKOUT
WEATHER BY HOUR - FEBRUARY 13, 2013
[ °C ]   °F
Local TimeTemperatureDewpointHumidityBarometerVisibilityWind DirectionWind SpeedGust SpeedPrecipitationEventsConditions
12:34 AM27.5 °F21.2 °F77 %29.92 in10.0 miWest (260°)8.1 mphOvercast
12:55 AM27.5 °F21.2 °F77 %29.91 in10.0 miWNW (300°)6.9 mphOvercast
1:14 AM27.5 °F21.0 °F77 %29.91 in10.0 miWNW (290°)5.8 mphOvercast
1:35 AM27.9 °F21.2 °F76 %29.90 in10.0 miWNW (300°)5.8 mphOvercast
1:54 AM27.5 °F21.4 °F78 %29.89 in10.0 miNW (310°)5.8 mphOvercast
2:14 AM27.7 °F21.9 °F79 %29.89 in10.0 miWNW (290°)4.6 mphOvercast
2:35 AM27.5 °F21.7 °F79 %29.89 in10.0 miWNW (300°)5.8 mphOvercast
2:54 AM27.5 °F21.7 °F79 %29.88 in10.0 miWSW (250°)5.8 mphOvercast
3:14 AM27.3 °F21.7 °F80 %29.88 in10.0 miWest (270°)6.9 mphOvercast
3:35 AM27.3 °F21.6 °F79 %29.88 in10.0 miWest (260°)4.6 mphOvercast
3:54 AM27.0 °F21.2 °F79 %29.87 in10.0 miWNW (290°)4.6 mphOvercast
4:14 AM27.0 °F21.6 °F80 %29.86 in10.0 miWest (260°)6.9 mphOvercast
4:35 AM26.6 °F21.2 °F80 %29.86 in10.0 miWSW (250°)6.9 mphOvercast
4:54 AM26.6 °F21.6 °F81 %29.86 in10.0 miWSW (250°)4.6 mphOvercast
5:14 AM26.6 °F21.4 °F81 %29.85 in10.0 miWest (270°)3.5 mphOvercast
5:35 AM26.4 °F21.4 °F81 %29.84 in10.0 miWest (260°)4.6 mphOvercast
5:54 AM26.4 °F21.2 °F81 %29.84 in10.0 miCalmOvercast
6:14 AM26.1 °F21.2 °F82 %29.84 in10.0 miCalmOvercast
6:34 AM25.7 °F21.0 °F82 %29.83 in10.0 miCalmOvercast
6:54 AM25.3 °F20.8 °F83 %29.82 in10.0 miSSE (160°)3.5 mphMostly Cloudy
7:15 AM24.6 °F20.8 °F86 %29.81 in10.0 miCalmScattered Clouds
7:34 AM24.3 °F20.8 °F87 %29.80 in7.0 miCalmClear
7:54 AM23.9 °F20.8 °F88 %29.80 in5.0 miCalmClear
8:15 AM24.1 °F20.7 °F87 %29.81 in5.0 miCalmClear
8:34 AM24.8 °F21.2 °F86 %29.81 in7.0 miCalmClear
8:54 AM26.1 °F22.1 °F85 %29.81 in7.0 miCalmClear
9:15 AM27.1 °F21.9 °F81 %29.81 in7.0 miCalmClear
9:34 AM27.7 °F21.7 °F78 %29.80 in7.0 miCalmScattered Clouds
9:54 AM28.2 °F21.9 °F77 %29.80 in10.0 miSSW (210°)5.8 mphClear
10:15 AM29.3 °F22.1 °F75 %29.81 in10.0 miSSW (210°)4.6 mphClear
10:34 AM30.4 °F22.6 °F73 %29.81 in10.0 miSouth (190°)6.9 mphClear
10:54 AM31.5 °F22.8 °F70 %29.81 in10.0 miSSW (200°)4.6 mphClear
11:15 AM32.2 °F23.0 °F69 %29.81 in10.0 miSSW (200°)5.8 mphClear
11:34 AM32.9 °F23.2 °F67 %29.80 in10.0 miSW (220°)5.8 mphClear
11:54 AM34.2 °F23.5 °F65 %29.80 in10.0 miNorthClear
12:14 PM35.6 °F23.9 °F62 %29.79 in7.0 miWSW (240°)6.9 mphClear
12:34 PM35.4 °F23.2 °F61 %29.78 in10.0 miSSW (200°)5.8 mphClear
12:55 PM37.0 °F23.5 °F58 %29.77 in10.0 miWSW (240°)6.9 mphClear
1:14 PM38.1 °F23.9 °F57 %29.76 in10.0 miWSW (250°)4.6 mphClear
1:34 PM38.8 °F24.3 °F56 %29.75 in10.0 miWSW (250°)4.6 mphClear
1:54 PM38.8 °F24.3 °F56 %29.74 in10.0 miWSW (240°)8.1 mphClear
2:14 PM39.7 °F25.0 °F56 %29.73 in10.0 miSW (230°)11.5 mph16.1 mphClear
2:35 PM40.5 °F25.2 °F54 %29.72 in10.0 miSW (230°)9.2 mphClear
2:54 PM40.5 °F25.3 °F55 %29.72 in10.0 miSW (230°)9.2 mphClear
3:14 PM40.8 °F25.2 °F54 %29.71 in10.0 miSW (230°)8.1 mphClear
3:35 PM41.2 °F25.9 °F55 %29.71 in10.0 miSW (220°)10.4 mphClear
3:54 PM41.7 °F25.0 °F52 %29.71 in10.0 miSW (220°)8.1 mphClear
4:14 PM41.5 °F24.6 °F51 %29.71 in10.0 miWSW (240°)8.1 mphClear
4:54 PM41.7 °F25.7 °F53 %29.71 in10.0 miWSW (250°)9.2 mphClear
5:14 PM40.6 °F25.7 °F55 %29.71 in10.0 miWSW (250°)5.8 mphClear
5:35 PM39.6 °F26.1 °F58 %29.72 in10.0 miWSW (250°)4.6 mphClear
5:54 PM37.4 °F25.9 °F63 %29.72 in10.0 miCalmClear
6:14 PM37.2 °F25.9 °F64 %29.72 in10.0 miCalmClear
6:35 PM36.7 °F26.1 °F65 %29.73 in10.0 miSSW (210°)3.5 mphClear
6:54 PM35.4 °F26.1 °F69 %29.73 in10.0 miSSW (200°)3.5 mphClear
7:14 PM35.2 °F26.4 °F70 %29.73 in10.0 miSSW (210°)3.5 mphClear
7:35 PM35.6 °F26.4 °F69 %29.74 in10.0 miSSW (210°)3.5 mphScattered Clouds
7:54 PM34.7 °F26.4 °F72 %29.75 in10.0 miSSW (210°)4.6 mphScattered Clouds
8:14 PM34.2 °F26.6 °F74 %29.75 in10.0 miSSW (210°)3.5 mphClear
8:34 PM33.8 °F26.4 °F74 %29.74 in10.0 miSSW (200°)3.5 mphClear
8:54 PM33.4 °F26.6 °F76 %29.75 in10.0 miSouth (190°)3.5 mphClear
9:15 PM33.8 °F26.8 °F75 %29.74 in10.0 miCalmClear
9:34 PM33.3 °F26.6 °F77 %29.75 in10.0 miCalmScattered Clouds
9:54 PM33.1 °F27.1 °F79 %29.75 in10.0 miSSW (210°)4.6 mphMostly Cloudy
10:15 PM33.3 °F27.3 °F79 %29.75 in10.0 miSSW (210°)5.8 mphScattered Clouds
10:34 PM33.1 °F27.5 °F80 %29.75 in10.0 miSSW (210°)5.8 mphClear
10:54 PM32.9 °F27.5 °F81 %29.74 in10.0 miSSW (200°)5.8 mphClear
11:15 PM32.9 °F27.9 °F82 %29.75 in10.0 miSSW (210°)5.8 mphClear
11:34 PM32.4 °F27.9 °F83 %29.75 in10.0 miSSW (210°)5.8 mphClear
11:54 PM32.2 °F28.0 °F85 %29.75 in7.0 miSW (220°)5.8 mphClear
Hourly data recorded from KOEB, located miles away from Goshen, Indiana







STORIES FROM OUR PARTNERS